Regional Weather Roundup
Issued by NWS

Home | Current Version | Previous Version | Text Only | Print | Product List | Glossary On
Versions: 1 2 3 4 5 6 7 8 9 10 11 12 13 14 15 16 17 18 19 20 21 22 23 24 25 26 27 28 29 30 31 32 33 34 35 36 37 38 39 40 41 42 43 44 45 46 47 48 49 50
000
ASUS43 KOAX 181110
RWRNE

WEATHER ROUNDUP FOR NEBRASKA
NATIONAL WEATHER SERVICE OMAHA NE
500 AM CST SUN FEB 18 2018

NOTES: SATELLITE DATA IS BEING USED TO AUGMENT CLOUD COVER ABOVE
       12000 FEET.
       "FAIR" INDICATES FEW OR NO CLOUDS BELOW 12,000 FEET WITH NO
       SIGNIFICANT WEATHER AND/OR OBSTRUCTIONS TO VISIBILITY.


NEZ001>004-019>022-054>056-181200-
NEBRASKA PANHANDLE

CITY           SKY/WX    TMP DP  RH WIND       PRES   REMARKS
SCOTTSBLUFF    PTCLDY    48  14  25 S13       29.51R
ALLIANCE       CLOUDY    33  20  58 S10       29.51F WCI  25
CHADRON        CLOUDY    38  27  64 S9        29.43F WCI  31
GORDON         FAIR      38  23  56 SW14      29.45F WCI  29
KIMBALL        PTCLDY    36  17  45 SW10      29.57F WCI  28
SIDNEY         PTCLDY    27  17  66 SW8       29.58F WCI  19
$$

NEZ057>060-069>072-079>082-181200-
SOUTHWEST NEBRASKA

CITY           SKY/WX    TMP DP  RH WIND       PRES   REMARKS
NORTH PLATTE   CLEAR     36  19  50 S18       29.63F WCI  26
IMPERIAL       CLEAR     36  19  50 S12       29.64F WCI  28
LEXINGTON      CLEAR     39  20  47 S29       29.68F WCI  27
MCCOOK         MOCLDY    39  23  52 S12       29.69F WCI  32
OGALLALA       PTCLDY    34  23  64 CALM      29.61F
$$

NEZ005>010-023>029-035>040-094-181200-
NORTH CENTRAL NEBRASKA

CITY           SKY/WX    TMP DP  RH WIND       PRES   REMARKS
VALENTINE      MOCLDY    41  20  43 S22G35    29.50F
AINSWORTH      CLEAR     37  21  53 S22G31    29.55S WCI  26
BROKEN BOW     CLEAR     36  20  52 S18       29.67F WCI  26
O`NEILL        CLEAR     38  22  51 S29G37    29.61F WCI  26
ORD            CLEAR     39  20  46 S24G35    29.68F WCI  28
THEDFORD       PTCLDY    41  19  41 S25G33    29.58F
$$

NEZ041-046>049-061>064-073>077-083>087-181200-
SOUTH CENTRAL NEBRASKA

CITY           SKY/WX    TMP DP  RH WIND       PRES   REMARKS
GRAND ISLAND   CLEAR     38  20  48 S21       29.77F WCI  28
AURORA         CLEAR     35  18  50 S17G29    29.80F WCI  25
HASTINGS       CLOUDY    40  19  43 S14G25    29.79F WCI  32
HEBRON         CLOUDY    39  18  43 S15       29.90F WCI  30
HOLDREGE       CLOUDY    38  22  52 S18G28    29.75F WCI  28
KEARNEY        CLOUDY    37  20  50 S16       29.76F WCI  28
YORK           CLEAR     32  19  59 S17G23    29.84F WCI  21
$$

NEZ011>018-030>034-042>045-181200-
NORTHEAST NEBRASKA

CITY           SKY/WX    TMP DP  RH WIND       PRES   REMARKS
NORFOLK        CLEAR     34  22  61 S24G31    29.77F WCI  21
ALBION         CLEAR     35  21  58 SE12      29.78F WCI  26
BLAIR          CLEAR     34  24  67 S17G23    29.90F WCI  24
COLUMBUS       CLEAR     33  21  61 S15       29.85F WCI  23
FREMONT        CLEAR     33  24  68 S14       29.89F WCI  23
TEKAMAH        CLEAR     29  25  85 SE13      29.90F WCI  19
WAYNE          CLEAR     31  26  81 S20G25    29.80F WCI  18
$$

NEZ050>053-065>068-078-088>093-181200-
SOUTHEAST NEBRASKA

CITY           SKY/WX    TMP DP  RH WIND       PRES   REMARKS
LINCOLN        CLOUDY    34  20  56 S13       29.93F WCI  25
OMAHA EPPLEY   CLEAR     33  23  66 S14       29.94F WCI  23
BEATRICE       CLOUDY    38  21  49 S12       29.95S WCI  31
FALLS CITY     CLOUDY    35  21  56 S13       30.02F WCI  26
NEBRASKA CITY  CLOUDY    33  24  68 S16G23    29.97F WCI  23
PLATTSMOUTH    CLEAR     32  23  70 SE15      29.95F WCI  22
$$

NEZ044-045-051>053-067-181200-
OMAHA AREA

CITY           SKY/WX    TMP DP  RH WIND       PRES   REMARKS
OMAHA EPPLEY   CLEAR     33  23  66 S14       29.94F WCI  23
BLAIR          CLEAR     34  24  67 S17G23    29.90F WCI  24
FREMONT        CLEAR     33  24  68 S14       29.89F WCI  23
MILLARD        CLEAR     34  24  67 SE10      29.94F WCI  26
OFFUTT AFB     CLEAR     28  23  80 SE15      29.94F WCI  17
PLATTSMOUTH    CLEAR     32  23  70 SE15      29.95F WCI  22
WAHOO          FAIR      32  24  71 S16       29.90F WCI  21
$$



USA.gov is the U.S. government's official web portal to all federal, state and local government web resources and services.